STARLINK-32438, 61722

Orbit data source: Space-Track

STARLINK-32438, 61722 is a payload satellite owned by SpaceX/Seattle (US) in LEO that was launched on Wed, 30 Oct 2024 UTC via an FALCON 9 launch vehicle from the Air Force Eastern Test Range (AFETR). Payload-class satellites include a variety of spacecraft equipped with specific instruments for various scientific and technological missions. These include communications satellites like Starlink; space stations such as the ISS; scientific satellites like the Hubble; Earth observation satellites from companies like Planet Labs, Umbra, and HawkEye 360; GPS; miniature CubeSats for education and research; and military/defense satellites.

Loading next visibility...
Identifier
61722, 2024-196R
Orbit
LEO
Last TLE update
18 hours ago
Origin
Manufacturer
SpaceX/Seattle
Mission
Operational Commercial Communications
Bus & Motor
STARLINK V2M, Unknown motor
Mass
730 kg wet, ~700 kg dry
Launch date (UTC)
2024-10-30 (8 months ago)
Launch vehicle
FALCON 9
Launch site
Air Force Eastern Test Range (AFETR)
Object type
Payload
Rocket body
Debris
Shape & HBR
Box + 2 Pan, 29 m
Radar Cross Section
36.964 m², Large (>1 m²)

Expand to show TLE details & history

TLE from 18 hours ago
0 STARLINK-32438
1 61722U 24196R   25187.26029072 -.00000006  00000-0  11923-4 0  9998
2 61722  53.1599 166.2286 0001250  87.9236 272.1908 15.30187543 39420
Epoch: 2025-07-06T06:14Z
TLE epoch observation values (Epoch: 2025-07-06T06:14:49.118Z)
Latitude
Longitude
148.03741°
Altitude
476.119 km
Speed
7.629 km/s
True Right ascension
11h 04m 54s
True Declination
0° 00' 00"
Sunlit
Object was in daylight at epoch
Visualization orbit readout
Latitude
-32.12531°
Longitude
-7.59379°
Altitude
485.787 km
Speed
7.622 km/s
Apparent Right ascension
00h 35m 39s
Apparent Declination
-35° 42' 58"
Sunlit
Object is in daylight
Visualization observer readout
Local Sidereal Time
12:27:40
Azimuth
338.783° N
Elevation
-85.513°
Doppler factor
1
Orbital elements
Apogee altitude
476.365 km
Perigee altitude
474.652 km
Semi-major axis
6,853.646 km
Eccentricity
0.00013
Inclination
53.1599°
RAAN
166.2286°
Arg. of periapsis
87.9236°
True anomaly
Unknown
Mean anomaly
272.1908°
Eccentric anomaly
Unknown
Mean motion
3.82526 °/min
Orbital period
94.11 mins
BSTAR
0.000011923
Loading maneuver chart data...
Loading SW <> Apogee altitude chart data...
Loading historical data...
Loading historical data...
Loading historical data...
Loading historical data...
Loading historical data...
Loading historical data...
Loading historical data...

STARLINK-32438 Visibility forecast

Observer location: undefined°, undefined°

Span
Click to sort rows by Start time (UTC) header in descending order
Start Az.
Max El. time (UTC)
Max El. Az.
Max El.
End time (UTC)
End Az.
6 mins2025-07-07 01:14:12.185Z223.059° SW2025-07-07 01:17:12.185Z108.385° ESE44.07°2025-07-07 01:20:12.185Z53.122° ENE
5 mins2025-07-07 07:50:12.185Z322.542° NNW2025-07-07 07:52:12.185Z46.745° ENE41.884°2025-07-07 07:55:12.185Z118.769° SE
|